[[{"header":{"parameterUnit":"m.s-1","parameterCategory":1,"la1":30.2991,"la2":30.254,"lo1":-89.0895,"lo2":-89.0444,"dy":0.0017,"dx":0.0017,"nx":28,"ny":28,"refTime":"2023-04-26T15:00:00:Z","depth":0,"parameterNumber":2,"parameterNumberName":"U-component_of_WINDS"},"data":[0,0,0,0,0,0,0,0,0,0,0,0,0,0,0,0,0,0,0,0,0,0,0,0,0,0,0,0,0,0,0,0,0,0,0,0,0,0,0,0,0,0,0,0,0,0,0,0,0,0,0,0,0,0,0,0,0,0,-3.1374,-3.1373,0,-3.1302,-3.1301,-3.13,-3.1209,-3.1208,-3.1206,-3.1205,-3.1132,-3.1132,-3.1131,0,0,0,0,0,0,0,0,0,0,0,0,0,-3.1434,-3.1433,-3.1374,-3.1373,-3.1372,-3.1302,-3.1301,-3.13,-3.1209,-3.1208,-3.1206,-3.1204,-3.1132,-3.1132,-3.1131,0,0,0,0,0,0,0,0,0,0,0,0,0,-3.139,-3.1433,-3.1374,-3.1318,-3.1312,-3.1302,-3.1301,-3.13,-3.121,-3.1208,-3.1205,-3.1203,-3.1133,-3.1132,-3.1131,-3.117,0,0,-3.1128,-3.1128,0,0,0,0,0,0,0,0,-3.1392,-3.1388,-3.1327,-3.1322,-3.1316,-3.1262,-3.1296,-3.1256,-3.121,-3.1249,-3.1205,-3.1202,-3.1177,-3.1173,-3.1164,-3.1166,-3.1163,-3.1128,-3.1128,-3.1127,-3.1127,0,0,0,0,0,0,0,-3.1396,-3.139,-3.1345,-3.1327,-3.1319,-3.1298,-3.1289,-3.1288,-3.1226,-3.1245,-3.1238,-3.1231,-3.1174,-3.1165,-3.1162,-3.1162,-3.1128,-3.1127,-3.1127,-3.1127,-3.1195,-3.1197,0,0,0,0,0,0,-3.1407,-3.1393,-3.1348,-3.1343,-3.1349,-3.1298,-3.1288,-3.1282,-3.1226,-3.1215,-3.1233,-3.1227,-3.1168,-3.1163,-3.1159,-3.1201,-3.1127,-3.1127,-3.1126,-3.1193,-3.1196,-3.1198,0,0,0,0,0,0,-3.1408,-3.1403,-3.135,-3.1366,-3.1358,-3.13,-3.1293,-3.1281,-3.1273,-3.1217,-3.1206,-3.1236,-3.1166,-3.116,-3.1168,-3.1198,-3.1126,-3.1125,-3.119,-3.1194,-3.1197,-3.1287,0,0,0,0,0,0,-3.141,-3.1405,-3.1418,-3.1367,-3.1357,-3.1361,-3.1294,-3.1282,-3.1271,-3.1263,-3.1216,-3.1206,-3.1163,-3.117,-3.1167,-3.1195,-3.1125,-3.1187,-3.1192,-3.1196,-3.1281,-3.1293,-3.1304,0,0,0,0,0,-3.1413,-3.1446,-3.1419,-3.1414,-3.1373,-3.1362,-3.1357,-3.1307,-3.1274,-3.1287,-3.1252,-3.1208,-3.1195,-3.1172,-3.1168,-3.1196,-3.1185,-3.119,-3.1196,-3.1276,-3.1291,-3.1303,0,0,0,0,0,0,-3.1501,-3.1438,-3.1408,-3.1425,-3.14,-3.1347,-3.1362,-3.1323,-3.1307,-3.13,-3.1239,-3.1229,-3.1245,-3.1221,-3.1196,-3.1232,-3.1184,-3.1189,-3.1246,-3.126,-3.1271,-3.1276,-3.1124,0,0,0,0,0,-3.1522,-3.1519,-3.1464,-3.1485,-3.1474,-3.1421,-3.1414,-3.1378,-3.1349,-3.1338,-3.1303,-3.1278,-3.1268,-3.1263,-3.1251,-3.1278,-3.1267,-3.1296,-3.1307,-3.1317,-3.1321,-3.1336,-3.1348,-3.1216,-3.1215,-3.1215,0,0,-3.1566,-3.1532,-3.1533,-3.1502,-3.1478,-3.1476,-3.1412,-3.1412,-3.1411,-3.1338,-3.1344,-3.1318,-3.1285,-3.1304,-3.131,-3.1285,-3.1356,-3.1323,-3.1331,-3.133,-3.1342,-3.1355,-3.1366,-3.1219,-3.1218,-3.1218,0,0,-3.1646,-3.1619,-3.1634,-3.1612,-3.1577,-3.1542,-3.1546,-3.1499,-3.148,-3.1485,-3.1431,-3.1429,-3.1413,-3.1392,-3.138,-3.1456,-3.1415,-3.1454,-3.1512,-3.1527,-3.1537,-3.1546,-3.1574,-3.1584,-3.1459,-3.1459,-3.1459,0,-3.1704,-3.1699,-3.1646,-3.1651,-3.1639,-3.1575,-3.159,-3.1571,-3.1535,-3.1529,-3.1501,-3.1482,-3.1455,-3.1469,-3.1488,-3.1479,-3.1483,-3.1458,-3.154,-3.1548,-3.1556,-3.1582,-3.1592,-3.1464,-3.1463,-3.1463,-3.1462,0,-3.1774,-3.1772,-3.1788,-3.1755,-3.1745,-3.1755,-3.1705,-3.1702,-3.1668,-3.1637,-3.1644,-3.1611,-3.1591,-3.1592,-3.1558,-3.1602,-3.1587,-3.1551,-3.1501,-3.1574,-3.1598,-3.1607,-3.1471,-3.1469,-3.1468,-3.1467,0,0,-3.1904,-3.1843,-3.185,-3.1835,-3.1794,-3.1791,-3.18,-3.1781,-3.1781,-3.1758,-3.1764,-3.1754,-3.1721,-3.1707,-3.1671,-3.1684,-3.1748,-3.1646,-3.1644,-3.1666,-3.1795,-3.1823,-3.1835,-3.1721,-3.1723,-3.1724,-3.1798,0,-3.1975,-3.1985,-3.1939,-3.1961,-3.1959,-3.19,-3.1907,-3.1883,-3.1855,-3.185,-3.1818,-3.1813,-3.1768,-3.176,-3.1771,-3.1738,-3.1773,-3.1732,-3.1727,-3.1727,-3.1736,-3.1847,-3.1875,-3.1947,-3.1807,-3.1808,-3.1809,0,-3.2058,-3.2042,-3.2064,-3.2024,-3.2021,-3.2028,-3.2009,-3.2005,-3.1978,-3.1956,-3.1943,-3.1902,-3.1909,-3.1863,-3.1871,-3.1845,-3.184,-3.1825,-3.1826,-3.1823,-3.1772,-3.1847,-3.1968,-3.1979,-3.1823,-3.1822,-3.1821,0,-3.2151,-3.2135,-3.2146,-3.2135,-3.2088,-3.2095,-3.2076,-3.2047,-3.204,-3.2023,-3.2018,-3.2004,-3.1995,-3.1985,-3.1942,-3.1912,-3.1957,-3.1907,-3.194,-3.1941,-3.1951,-3.1951,-3.2073,-3.1949,-3.1949,-3.1949,-3.1949,0,-3.2235,-3.2251,-3.2188,-3.2195,-3.2212,-3.216,-3.2179,-3.2154,-3.2129,-3.2131,-3.2079,-3.2082,-3.2025,-3.2023,-3.1989,-3.2003,-3.1999,-3.1983,-3.1974,-3.1987,-3.199,-3.1983,-3.1977,-3.1952,-3.1951,-3.1951,-3.195,0,-3.2341,-3.2299,-3.2308,-3.2264,-3.2253,-3.2268,-3.223,-3.2235,-3.2205,-3.2209,-3.2207,-3.2159,-3.2154,-3.211,-3.2095,-3.2073,-3.2099,-3.208,-3.2108,-3.2102,-3.2138,-3.2136,-3.226,-3.2274,-3.2142,-3.2143,-3.2144,0,-3.2397,-3.2408,-3.2366,-3.2364,-3.2347,-3.2344,-3.2337,-3.2288,-3.2283,-3.2255,-3.2264,-3.2255,-3.2244,-3.2239,-3.2204,-3.2193,-3.2173,-3.2218,-3.2171,-3.2185,-3.2174,-3.2174,-3.2175,-3.2227,-3.2229,-3.223,-3.2232,0,-3.25,-3.248,-3.2471,-3.2457,-3.2451,-3.2437,-3.2419,-3.2421,-3.2367,-3.2364,-3.2359,-3.2351,-3.2337,-3.2328,-3.2312,-3.2293,-3.2254,-3.2247,-3.2254,-3.2268,-3.2284,-3.2276,-3.2135,-3.2244,-3.2243,-3.2242,-3.2241,-3.2241,-3.2583,-3.2591,-3.2563,-3.2556,-3.2539,-3.2525,-3.2528,-3.2499,-3.2494,-3.2478,-3.245,-3.2449,-3.2424,-3.2397,-3.2382,-3.2382,-3.2358,-3.2369,-3.2371,-3.2374,-3.2382,-3.2285,-3.2378,-3.2378,-3.2378,-3.2377,-3.2377,0,-3.2684,-3.2664,-3.2658,-3.2637,-3.2633,-3.2597,-3.2577,-3.2576,-3.2576,-3.2556,-3.2547,-3.2542,-3.2535,-3.2501,-3.249,-3.2496,-3.2478,-3.2495,-3.2494,-3.249,-3.2403,-3.2398,-3.251,-3.251,-3.251,-3.251,-3.251,-3.251,-3.2736,-3.2748,-3.2725,-3.2729,-3.2709,-3.2707,-3.2699,-3.2687,-3.2671,-3.2667,-3.2661,-3.2639,-3.2614,-3.2602,-3.2594,-3.2584,-3.2583,-3.2606,-3.259,-3.2509,-3.2496,-3.2484,-3.2479,-3.2606,-3.2606,-3.2677,-3.2678,-3.2679]},{"header":{"parameterUnit":"m.s-1","parameterCategory":1,"la1":30.2991,"la2":30.254,"lo1":-89.0895,"lo2":-89.0444,"dy":0.0017,"dx":0.0017,"nx":28,"ny":28,"refTime":"2023-04-26T15:00:00:Z","depth":0,"parameterNumber":3,"parameterNumberName":"V-component_of_WINDS"},"data":[0,0,0,0,0,0,0,0,0,0,0,0,0,0,0,0,0,0,0,0,0,0,0,0,0,0,0,0,0,0,0,0,0,0,0,0,0,0,0,0,0,0,0,0,0,0,0,0,0,0,0,0,0,0,0,0,0,0,1.8492,1.8492,0,1.8469,1.8469,1.8468,1.8549,1.8551,1.8553,1.8556,1.8527,1.8524,1.8521,0,0,0,0,0,0,0,0,0,0,0,0,0,1.8602,1.86,1.8492,1.8492,1.8491,1.8469,1.8468,1.8468,1.8548,1.8551,1.8554,1.8557,1.8528,1.8524,1.852,0,0,0,0,0,0,0,0,0,0,0,0,0,1.8564,1.8599,1.8492,1.8529,1.8532,1.8469,1.8468,1.8468,1.8548,1.8551,1.8555,1.8558,1.8529,1.8524,1.852,1.8419,0,0,1.8506,1.8504,0,0,0,0,0,0,0,0,1.8566,1.856,1.8524,1.8526,1.8529,1.8516,1.8497,1.8451,1.8547,1.8541,1.8556,1.856,1.852,1.8516,1.8503,1.8417,1.8416,1.8506,1.8503,1.8501,1.8499,0,0,0,0,0,0,0,1.8568,1.8561,1.8483,1.8523,1.8527,1.8545,1.8544,1.8488,1.851,1.8542,1.8548,1.8544,1.8522,1.8508,1.8503,1.8416,1.8506,1.8502,1.8499,1.8497,1.8246,1.8243,0,0,0,0,0,0,1.8567,1.8563,1.8483,1.8482,1.8557,1.854,1.8539,1.8516,1.8511,1.8514,1.8541,1.8548,1.8514,1.8509,1.8503,1.8384,1.8501,1.8497,1.8494,1.825,1.8245,1.8241,0,0,0,0,0,0,1.8569,1.8559,1.8484,1.8524,1.8516,1.8535,1.8508,1.8514,1.85,1.851,1.8514,1.8523,1.8516,1.8509,1.844,1.8384,1.8494,1.849,1.8255,1.8249,1.8243,1.8146,0,0,0,0,0,0,1.8572,1.8559,1.8522,1.8523,1.8514,1.8422,1.8505,1.8511,1.8492,1.8501,1.8494,1.8497,1.8519,1.8446,1.8435,1.838,1.8487,1.826,1.8252,1.8245,1.8154,1.8138,1.8123,0,0,0,0,0,1.8575,1.8494,1.8519,1.8509,1.8467,1.8419,1.8414,1.8442,1.8488,1.8449,1.8457,1.8497,1.8393,1.8438,1.8427,1.8369,1.8263,1.8254,1.8246,1.8161,1.8141,1.8124,0,0,0,0,0,0,1.8484,1.8495,1.8523,1.844,1.8428,1.8433,1.8385,1.842,1.8393,1.8402,1.8438,1.8435,1.8359,1.8358,1.8408,1.8272,1.8336,1.8324,1.8275,1.8256,1.8241,1.8242,1.8483,0,0,0,0,0,1.8454,1.8416,1.8427,1.8352,1.8345,1.8366,1.8346,1.837,1.8358,1.8353,1.8355,1.8341,1.8306,1.8281,1.8249,1.8155,1.8154,1.811,1.8095,1.8082,1.8071,1.8021,1.8002,1.8212,1.8212,1.8212,0,0,1.8392,1.8393,1.8366,1.8334,1.8328,1.8286,1.8361,1.8313,1.8282,1.8345,1.828,1.8281,1.8268,1.8186,1.815,1.8182,1.8013,1.8071,1.806,1.8056,1.801,1.799,1.7973,1.8206,1.8207,1.8208,0,0,1.8257,1.8254,1.8192,1.8185,1.8176,1.8191,1.8176,1.8176,1.8179,1.8115,1.8162,1.8125,1.8063,1.8052,1.8038,1.7901,1.7937,1.7889,1.7808,1.7759,1.7743,1.7728,1.7679,1.766,1.7879,1.7878,1.7878,0,1.818,1.812,1.8155,1.8105,1.8089,1.8147,1.8084,1.8075,1.8054,1.8041,1.8078,1.8002,1.7997,1.7914,1.7881,1.7868,1.7851,1.7889,1.7742,1.7728,1.7715,1.7668,1.765,1.7873,1.7873,1.7874,1.7874,0,1.8026,1.7984,1.7935,1.7916,1.7895,1.7838,1.7864,1.7838,1.7863,1.7874,1.7808,1.7805,1.7773,1.7756,1.7779,1.7675,1.7696,1.7737,1.7802,1.7689,1.7645,1.7628,1.7864,1.7867,1.7868,1.787,0,0,1.783,1.7834,1.7815,1.7808,1.7802,1.777,1.7716,1.7687,1.7664,1.7648,1.7603,1.755,1.7589,1.7573,1.7596,1.7554,1.7445,1.7601,1.7601,1.7571,1.7331,1.7299,1.7277,1.747,1.7467,1.7464,1.7331,0,1.7698,1.7607,1.7638,1.7545,1.7506,1.7562,1.7515,1.7505,1.7514,1.7482,1.7492,1.7453,1.7508,1.7499,1.746,1.7467,1.7397,1.7477,1.7427,1.7425,1.7427,1.7255,1.7221,1.7095,1.7315,1.7312,1.731,0,1.753,1.751,1.7414,1.7416,1.7401,1.7358,1.7335,1.7304,1.7295,1.7305,1.7288,1.7321,1.7267,1.7333,1.7259,1.7313,1.7294,1.7295,1.7291,1.7286,1.7359,1.7244,1.7056,1.7036,1.7284,1.7286,1.7288,0,1.7396,1.7345,1.7281,1.7273,1.7275,1.7243,1.7242,1.7237,1.7218,1.7198,1.7185,1.7158,1.7142,1.712,1.7144,1.719,1.7066,1.7134,1.7071,1.707,1.7041,1.7042,1.6846,1.7031,1.7031,1.7031,1.7032,0,1.7244,1.7182,1.7221,1.7182,1.7115,1.7151,1.7083,1.7088,1.7084,1.7045,1.7091,1.7054,1.7089,1.7054,1.7072,1.7008,1.7001,1.7006,1.7011,1.7001,1.7,1.6988,1.6997,1.7026,1.7027,1.7028,1.7029,0,1.7082,1.7106,1.704,1.7048,1.7048,1.6998,1.7005,1.6968,1.6981,1.6932,1.6923,1.6943,1.6905,1.6927,1.6888,1.69,1.6816,1.6834,1.682,1.6824,1.6759,1.6765,1.6547,1.652,1.6724,1.6722,1.672,0,1.6982,1.6937,1.6941,1.6919,1.6916,1.688,1.6862,1.6896,1.6875,1.6863,1.6827,1.6794,1.6768,1.6705,1.6715,1.6685,1.6702,1.6628,1.6698,1.6689,1.67,1.6702,1.6697,1.6613,1.6611,1.6609,1.6607,0,1.6803,1.6818,1.679,1.6767,1.6745,1.6727,1.6714,1.6693,1.6728,1.6701,1.6664,1.6645,1.6606,1.6572,1.6547,1.6545,1.6581,1.6586,1.657,1.6558,1.6551,1.6553,1.678,1.659,1.6592,1.6593,1.6594,1.6595,1.6669,1.6631,1.6629,1.6597,1.6591,1.6578,1.6544,1.6554,1.6524,1.6497,1.6519,1.6474,1.6467,1.6438,1.6431,1.6396,1.6426,1.6402,1.6396,1.6389,1.638,1.6558,1.6392,1.6392,1.6393,1.6393,1.6394,0,1.6491,1.6493,1.6464,1.6445,1.6419,1.6459,1.6446,1.6422,1.6383,1.6374,1.635,1.6307,1.6275,1.6283,1.6254,1.6224,1.624,1.6215,1.6217,1.6216,1.6356,1.6372,1.6203,1.6203,1.6203,1.6203,1.6203,1.6203,1.6396,1.6335,1.6349,1.6285,1.6287,1.6246,1.6235,1.6223,1.6216,1.6167,1.6142,1.6148,1.6146,1.6118,1.6089,1.6093,1.6079,1.6048,1.6057,1.6187,1.6206,1.6224,1.624,1.6045,1.6045,1.592,1.5919,1.5918]}]]